Coffeyville, KS

10:32 AM CDT on June 25, 2017 (GMT -0500)
Coffeyville Municipal

Weather History for KCFV - April, 2013

Change the Weather History Date:

Monday, April 8, 2013

  Actual Average Record
Temperature  
Mean Temperature 68 °F -  
Max Temperature 72 °F 64 °F 86 °F (2011)
Min Temperature 63 °F 42 °F 23 °F (2007)
Cooling Degree Days 2    
Growing Degree Days 18 (Base 50)    
Moisture  
Dew Point 59 °F    
Average Humidity 73    
Maximum Humidity 78    
Minimum Humidity 68    
Precipitation  
Precipitation 0.00 in - - ()
Sea Level Pressure  
Sea Level Pressure 29.69 in    
Wind  
Wind Speed 15 mph (SSE)    
Max Wind Speed 22 mph    
Max Gust Speed 30 mph    
Visibility 10 miles    
Events      
Averages and records for this station are not official NWS values.
T = Trace of Precipitation, MM = Missing Value Source: NWS Daily Summary

Daily Weather History Graph

Daily Weather History Graph

Search for Another Location

Airport or City:

Trip Planner

Search our weather history database for the weather conditions in past years. The results will help you decide how hot, cold, wet, or windy it might be!

Date:

Astronomy

Apr. 08, 2013 Rise Set
Actual Time 6:57 AM CDT 7:51 PM CDT
Civil Twilight 6:30 AM CDT 8:17 PM CDT
Nautical Twilight 5:59 AM CDT 8:49 PM CDT
Astronomical Twilight 5:27 AM CDT 9:21 PM CDT
Moon 5:46 AM CDT (4/8) 6:27 PM CDT (4/8)
Length of Visible Light 13h 46m
Length of Day
12h 53m
Waning Crescent, 3% of the Moon is Illuminated
Apr 8
Waning Crescent
Apr 10
New
Apr 18
First Quarter
Apr 25
Full
May 2
Last Quarter

Hourly Weather History & Observations

Time (CDT) Temp. Dew Point Humidity Pressure Visibility Wind Dir Wind Speed Gust Speed Precip Events Conditions
12:52 AM 64.9 °F 57.0 °F 75% 29.72 in 10.0 mi South 16.1 mph - N/A   Mostly Cloudy
1:52 AM 64.0 °F 57.0 °F 78% 29.71 in 10.0 mi South 10.4 mph - N/A   Clear
2:52 AM 63.0 °F 55.9 °F 78% 29.68 in 10.0 mi South 8.1 mph - N/A   Clear
3:52 AM 63.0 °F 55.9 °F 78% 29.68 in 10.0 mi South 5.8 mph - N/A   Scattered Clouds
4:52 AM 64.0 °F 57.0 °F 78% 29.67 in 10.0 mi SSE 9.2 mph - N/A   Overcast
5:52 AM 66.0 °F 57.0 °F 73% 29.67 in 10.0 mi South 15.0 mph 21.9 mph N/A   Mostly Cloudy
6:52 AM 64.9 °F 57.0 °F 75% 29.68 in 10.0 mi South 16.1 mph 25.3 mph N/A   Scattered Clouds
7:52 AM 64.9 °F 57.9 °F 78% 29.70 in 10.0 mi South 19.6 mph 26.5 mph N/A   Clear
8:52 AM 66.9 °F 57.9 °F 73% 29.73 in 10.0 mi South 19.6 mph 27.6 mph N/A   Overcast
9:52 AM 66.9 °F 59.0 °F 76% 29.72 in 10.0 mi South 21.9 mph 28.8 mph N/A   Partly Cloudy
10:44 AM 66.2 °F 59.0 °F 78% 29.74 in 10.0 mi South 19.6 mph 27.6 mph N/A   Mostly Cloudy
10:52 AM 66.9 °F 59.0 °F 76% 29.72 in 10.0 mi South 19.6 mph 26.5 mph N/A   Overcast
11:22 AM 68.0 °F 59.0 °F 73% 29.73 in 10.0 mi South 21.9 mph 27.6 mph N/A   Overcast
11:50 AM 69.8 °F 59.0 °F 68% 29.73 in 10.0 mi South 19.6 mph - N/A   Overcast
11:52 AM 69.1 °F 59.0 °F 70% 29.72 in 10.0 mi South 18.4 mph 26.5 mph N/A   Overcast
12:52 PM 70.0 °F 60.1 °F 71% 29.70 in 10.0 mi South 21.9 mph 29.9 mph N/A   Overcast
1:52 PM 72.0 °F 61.0 °F 68% 29.68 in 10.0 mi South 19.6 mph 29.9 mph N/A   Overcast
2:52 PM 71.1 °F 60.1 °F 68% 29.68 in 10.0 mi South 19.6 mph 27.6 mph N/A   Overcast
3:52 PM 71.1 °F 60.1 °F 68% 29.67 in 10.0 mi South 18.4 mph 25.3 mph N/A   Overcast
4:37 PM 71.6 °F 60.8 °F 69% 29.67 in 10.0 mi SSE 13.8 mph - N/A   Overcast
4:52 PM 72.0 °F 61.0 °F 68% 29.65 in 10.0 mi SSE 12.7 mph 21.9 mph N/A   Overcast
5:52 PM 71.1 °F 60.1 °F 68% 29.65 in 10.0 mi SSE 13.8 mph - N/A   Overcast
6:52 PM 71.1 °F 60.1 °F 68% 29.66 in 10.0 mi SE 10.4 mph - N/A   Overcast
7:52 PM 70.0 °F 60.1 °F 71% 29.66 in 10.0 mi SE 10.4 mph - N/A   Overcast
8:52 PM 68.0 °F 60.1 °F 76% 29.65 in 10.0 mi SE 9.2 mph - N/A   Mostly Cloudy
9:52 PM 69.1 °F 59.0 °F 70% 29.67 in 10.0 mi SSE 8.1 mph - N/A   Overcast
10:52 PM 69.1 °F 59.0 °F 70% 29.68 in 10.0 mi SSE 8.1 mph - N/A   Overcast
11:52 PM 69.1 °F 59.0 °F 70% 29.66 in 10.0 mi SE 8.1 mph - N/A   Overcast